Location: Tafessasset
(32.5899°N, 5.4824°W)
Time: 17:06:01
(UTC+00:00)

Meteor 1-27 - Pass Details

Date: 18 February 2020
Orbit: 838 x 892 km, 81.3° (Epoch: 02 April)

Event Time Altitude Azimuth Distance (km) Brightness Sun altitude
Rises 05:14:41 0° 189° (S) 3,393 7.3 -23.4°
Reaches altitude 10° 05:17:06 10° 190° (S) 2,456 6.5 -22.9°
Maximum altitude 05:22:40 80° 277° (W) 856 4.0 -21.7°
Drops below altitude 10° 05:28:14 10° 5° (N) 2,457 6.7 -20.5°
Sets 05:30:39 0° 7° (N) 3,395 7.4 -20.0°
